Location: Karaa?a�
(36.7158°N, 30.4165°E)
Time: 01:14:25
(UTC+00:00)

Spot 2 Rocket - Pass Details

Date: 09 April 2020
Orbit: 756 x 773 km, 98.6° (Epoch: 24 May)

Event Time Altitude Azimuth Distance (km) Brightness Sun altitude
Exits shadow 18:42:03 43° 44° (NE) 1,073 4.1 -25.7°
Drops below altitude 10° 18:46:08 10° 360° (N) 2,320 6.4 -26.4°
Sets 18:48:30 0° 354° (N) 3,248 7.3 -26.8°
